FW1328 Weather Reports


time (UTC)temp
C
wind
direction
speed
KPH
gust
KPH
rain 1hr
cm
rain 24hr
cm
rain mn
cm
humidity
%
barometer
mb
20260505054518 19 210 4.8 14.5 0.00 0.00 0.00 70 1002.2
20260505053007 20 187 8.0 20.9 0.00 0.00 0.00 69 1002.0
20260505051508 20 218 9.7 30.6 0.00 0.00 0.00 68 1001.6
20260505041609 20 216 8.0 27.4 0.00 0.00 0.00 67 1002.4
20260505040105 20 198 6.4 22.5 0.00 0.00 0.00 67 1002.6
20260505034612 20 227 6.4 12.9 0.00 0.00 0.00 67 1002.7
20260505033059 21 240 3.2 12.9 0.00 0.00 0.00 66 1002.7
20260505031602 21 203 4.8 12.9 0.00 0.00 0.00 65 1002.6
20260505030114 21 229 4.8 9.7 0.00 0.00 0.00 64 1002.2
20260505024611 21 211 6.4 16.1 0.00 0.00 0.00 63 1001.8
20260505023101 22 194 3.2 11.3 0.00 0.00 0.00 62 1001.4
20260505021556 22 199 3.2 11.3 0.00 0.00 0.00 61 1001.1
20260505021531 22 208 4.8 11.3 0.00 0.00 0.00 61 1001.1
20260505020106 22 209 6.4 16.1 0.00 0.00 0.00 60 1000.8
20260505014554 23 207 4.8 11.3 0.00 0.00 0.00 60 1000.7
20260505013053 23 189 6.4 12.9 0.00 0.00 0.00 59 1000.7
20260505011556 23 202 3.2 14.5 0.00 0.00 0.00 59 1000.7
20260505010108 23 196 8.0 19.3 0.00 0.00 0.00 57 1000.5
20260505004603 24 221 6.4 12.9 0.00 0.00 0.00 56 1000.4
20260505003151 25 197 6.4 17.7 0.00 0.00 0.00 55 1000.4
20260505001550 25 266 6.4 14.5 0.00 0.00 0.00 54 1000.3
20260504234548 26 238 11.3 29.0 0.00 0.00 0.00 51 1000.2
20260504233049 26 207 17.7 33.8 0.00 0.00 0.00 48 1000.3
20260504231618 26 202 12.9 27.4 0.00 0.00 0.00 50 1000.4
20260504230047 27 209 16.1 30.6 0.00 0.00 0.00 49 1000.5
20260504224545 27 226 16.1 37.0 0.00 0.00 0.00 48 1000.3
20260504223047 27 236 14.5 29.0 0.00 0.00 0.00 49 1000.3
20260504221616 27 222 17.7 29.0 0.00 0.00 0.00 47 1000.4
20260504220043 27 232 16.1 32.2 0.00 0.00 0.00 48 1000.4
20260504214542 27 226 24.1 41.8 0.00 0.00 0.00 48 1000.5
20260504213104 27 286 11.3 32.2 0.00 0.00 0.00 49 1000.5
20260504211539 27 232 20.9 40.2 0.00 0.00 0.00 49 1000.4
20260504210045 26 203 17.7 33.8 0.00 0.00 0.00 51 1000.4
20260504204537 26 201 11.3 33.8 0.00 0.00 0.00 51 1000.5
20260504203035 26 242 24.1 41.8 0.00 0.00 0.00 49 1000.6
20260504201534 26 215 12.9 33.8 0.00 0.00 0.00 51 1000.6
20260504200030 26 199 19.3 32.2 0.00 0.00 0.00 51 1001.1
20260504194527 26 202 19.3 30.6 0.00 0.00 0.00 52 1001.7
20260504193025 26 239 14.5 24.1 0.00 0.00 0.00 52 1002.0
20260504191529 25 240 12.9 25.7 0.00 0.00 0.00 53 1002.4
20260504190024 25 205 12.9 27.4 0.00 0.00 0.00 52 1002.6
20260504184538 25 234 19.3 33.8 0.00 0.00 0.00 51 1002.5
20260504183021 25 266 25.7 37.0 0.00 0.00 0.00 50 1002.5
20260504181520 26 242 11.3 29.0 0.00 0.00 0.00 50 1002.4
20260504180020 26 239 20.9 35.4 0.00 0.00 0.00 49 1002.4
20260504174515 25 244 14.5 38.6 0.00 0.00 0.00 50 1002.7
20260504173016 25 253 19.3 37.0 0.00 0.00 0.00 50 1002.7
20260504171512 25 267 17.7 37.0 0.00 0.00 0.00 50 1002.8
20260504081550 17 224 8.0 17.7 0.00 0.00 0.00 68 1005.2